Showing default

GLOBALSTAR M070, 32264

Orbit data source: Space-Track

GLOBALSTAR M070, 32264 is a payload satellite owned by Globalstar (US) in LEO that was launched on Sat, 20 Oct 2007 UTC via a SOYUZ-FG launch vehicle from the Tyuratam Missile And Space Complex (TTMTR). Payloads include a variety of satellites, spacecraft, and rockets equipped with specific instruments for various scientific and technological missions. These include communications satellites like Starlink; space stations such as the ISS; scientific satellites like the Hubble; Earth observation satellites from companies like Planet Labs, Umbra, and HawkEye 360; GPS; miniature CubeSats for education and research; and military/defense satellites.

Loading next visibility...
GLOBALSTAR M070 details
Identifier
32264, 2007-048B
Orbit
LEO
Last TLE update23 hours ago
Origin
Flag of USGlobalstar (US / GLOB)
ManufacturerSS/Loral
MissionOperational Commercial Communications
Bus & MotorLS-400, LS-400 AOCS
Mass450 kg wet, 380 kg dry
Launch date (UTC)
2007-10-20 (17 years ago)
Launch vehicle
SOYUZ-FG
Launch site
Tyuratam Missile And Space Complex (TTMTR)
Object type
Payload
Rocket body
Debris
Shape & HBRBox + 2 Pan, 12 m
Radar Cross Section5.587 m², Large (>1 m²)

Expand to show TLE details & history

TLE from 23 hours ago
0 GLOBALSTAR M070
1 32264U 07048B   25024.82782022 -.00000060  00000-0  24226-3 0  9996
2 32264  51.9722 205.2323 0001171 100.7656   6.3409 12.62311170795565
Epoch: 2025-01-24T19:52Z
Definitive object data (Epoch: 2025-01-24T19:52:03.667Z)
Latitude48.97255°
Longitude-100.59443°
Altitude1,418.098 km
Speed7.158 km/s
True Right ascension21h 27m 13s
True Declination48° 48' 60"
Sunlit
Object was in daylight at TLE epoch
Visualization TLE readout
Latitude38.81465°
Longitude178.73019°
Altitude1,416.108 km
Speed7.157 km/s
Apparent Right ascension12h 41m 02s
Apparent Declination8° 44' 08"
Sunlit
Object is in daylight
Visualization observer readout
Local Sidereal Time19:43:47
Azimuth286.839° WNW
Elevation-6.175°
Doppler factor1
Orbital elements
Apogee altitude1,414.728 km
Perigee altitude1,412.903 km
Semi-major axis7,791.953 km
Eccentricity0.0001171
Inclination51.9722°
RAAN205.2323°
Arg. of periapsis100.7656°
True anomaly6.34238°
Mean anomaly6.3409°
Eccentric anomaly6.34164°
Mean motion3.15554 °/min
BSTAR0.00024226
Orbital period114.09 mins
Loading maneuver chart data...
Loading historical data...
Loading historical data...
Loading historical data...
Loading historical data...
Loading historical data...
Loading historical data...
Loading historical data...

GLOBALSTAR M070 Visibility forecast

Observer location: undefined°, undefined

Span
Click to sort rows by Start time (UTC) header in descending order
Start Az.
Max El. time (UTC)
Max El. Az.
Max El.
End time (UTC)
End Az.
15 mins2025-01-25 18:29:01.906Z300.687° NW2025-01-25 18:37:01.906Z11.46° NNE31.494°2025-01-25 18:44:01.906Z70.409° E
15 mins2025-01-25 20:31:01.906Z312.113° NW2025-01-25 20:38:01.906Z37.365° NE42.083°2025-01-25 20:46:01.906Z111.578° ESE
14 mins2025-01-25 22:31:01.906Z293.952° NW2025-01-25 22:37:01.906Z236.971° WSW35.161°2025-01-25 22:45:01.906Z162.789° S
14 mins2025-01-26 13:14:01.906Z191.675° SSW2025-01-26 13:20:01.906Z136.695° SSE34.178°2025-01-26 13:28:01.906Z62.899° ENE
15 mins2025-01-26 15:13:01.906Z248.951° W2025-01-26 15:20:01.906Z330.467° NNW42.528°2025-01-26 15:28:01.906Z50.31° ENE
14 mins2025-01-26 17:15:01.906Z293.887° NW2025-01-26 17:21:01.906Z351.73° N31.713°2025-01-26 17:29:01.906Z59.558° ENE
|